Powrót do katalogu

STARLINK-31144

AktywnyŁącznośćVLEO
NORAD 58682·PAYLOAD·🇺🇸 United States

Wystrzelony Dec 29, 2023 z Cape Canaveral Space Force Station

Loading…

Następne Przeloty (najbliższe 24 godziny)

TLE

ŚwieżeSource: CelesTrak SupGP

Epoka: Sep 15, 2026, 02:37 UTC

1 58682C 23211R   26258.10951389  .00020736  00000+0  75080-3 0  2585
2 58682  43.0031  95.1144 0001796 274.7500 269.9360 15.27578233    13

Śledź STARLINK-31144 w czasie rzeczywistym z AllMySat

Download on the App Store